Location: Central Falls
(41.8900°N, 71.3929°W)
Time: 03:38:03
(UTC+00:00)

Tiros 1 - Pass Details

Date: 15 December 2023
Orbit: 625 x 658 km, 48.4° (Epoch: 01 March)

Event Time Altitude Azimuth Distance (km) Brightness Sun altitude
Rises 10:07:25 0° 297° (WNW) 2,984 - -21.2°
Reaches altitude 10° 10:09:47 10° 299° (WNW) 2,073 - -20.8°
Exits shadow 10:13:06 44° 312° (NW) 914 7.5 -20.2°
Maximum altitude 10:14:34 74° 25° (NNE) 688 7.2 -19.9°
Drops below altitude 10° 10:19:21 10° 111° (ESE) 2,067 11.0 -19.1°
Sets 10:21:41 0° 113° (ESE) 2,975 12.2 -18.7°
